Regional Weather Roundup
Issued by NWS Goodland, KS

Home | Current Version | Previous Version | Graphics & Text | Print | Product List | Glossary On
Versions: 1 2 3 4 5 6 7 8 9 10 11 12 13 14 15 16 17 18 19 20 21 22 23 24 25 26 27 28 29 30 31 32 33 34 35 36 37 38 39 40 41 42 43 44 45 46 47 48 49 50
000
ASUS43 KGLD 250808
RWRGLD

GOODLAND FORECAST AREA HOURLY WEATHER ROUNDUP
NATIONAL WEATHER SERVICE GOODLAND KS
100 AM MST SUN JAN 25 2015

...OFFICIAL OBSERVATIONS...

CITY           SKY/WX    TMP DP  RH WIND       PRES   REMARKS
GOODLAND KS    CLOUDY    40  27  59 NW26G36   30.04R
HILL CITY KS   CLEAR     43  30  60 NW14G25   29.93R
IMPERIAL NEB   CLEAR     38  27  64 NW22G30   30.00R
MCCOOK NEB     CLEAR     41  28  60 NW23G32   29.94R
AKRON CO       CLEAR     35  27  72 NW17      30.09S
BURLINGTON CO  MOCLDY    38  26  62 NW23G29   30.08R
LIMON CO       CLOUDY    34  26  72 NW21G26   30.14F
$$

...UNOFFICIAL OBSERVATIONS...

CITY           SKY/WX    TMP DP  RH WIND       PRES   REMARKS
COLBY KS       CLEAR     37  32  81 W23G29    30.00R
GOVE KS          N/A     42  32  68 MISG        N/A
NORTON KS      CLEAR     39  27  60 W18G29    29.91R
SHARON SPRINGS   N/A     38  29  69 NW18G26     N/A
KIT CARSON CO    N/A     39  26  60 MISG        N/A
YUMA CO          N/A     37  26  66 NW24        N/A
$$


USA.gov is the U.S. government's official web portal to all federal, state and local government web resources and services.